| time (UTC) | temp F | wind direction | speed knots | gust knots | rain 1hr in | rain 24hr in | rain mn in | humidity % | barometer mb |
| 20260509185905 | 75 | 194 | 0.0 | 1.7 | 0.00 | 0.00 | 0.00 | 57 | 1009.8 |
| 20260509185404 | 74 | 249 | 0.0 | 2.6 | 0.00 | 0.00 | 0.00 | 54 | 1009.9 |
| 20260509184904 | 74 | 319 | 0.0 | 1.7 | 0.00 | 0.00 | 0.00 | 53 | 1009.9 |
| 20260509184404 | 74 | 271 | 0.0 | 1.7 | 0.00 | 0.00 | 0.00 | 54 | 1010.0 |
| 20260509183404 | 74 | 234 | 2.6 | 7.8 | 0.00 | 0.00 | 0.00 | 56 | 1010.0 |
| 20260509182904 | 73 | 263 | 0.0 | 0.9 | 0.00 | 0.00 | 0.00 | 59 | 1009.9 |
| 20260509182405 | 73 | 213 | 0.0 | 0.9 | 0.00 | 0.00 | 0.00 | 63 | 1009.9 |
| 20260509181904 | 72 | 270 | 0.0 | 0.9 | 0.00 | 0.00 | 0.00 | 61 | 1010.0 |
| 20260509181404 | 72 | 258 | 0.0 | 1.7 | 0.00 | 0.00 | 0.00 | 62 | 1010.1 |
| 20260509180904 | 71 | 290 | 0.0 | 0.9 | 0.00 | 0.00 | 0.00 | 63 | 1010.2 |
| 20260509180404 | 71 | 234 | 0.0 | 0.9 | 0.00 | 0.00 | 0.00 | 64 | 1010.1 |
| 20260509175405 | 70 | 272 | 0.0 | 0.9 | 0.00 | 0.00 | 0.00 | 64 | 1010.1 |
| 20260509174904 | 70 | 337 | 0.0 | 7.0 | 0.00 | 0.00 | 0.00 | 63 | 1010.2 |
| 20260509174405 | 70 | 345 | 0.9 | 8.7 | 0.00 | 0.00 | 0.00 | 64 | 1010.2 |
| 20260509173404 | 70 | 237 | 0.9 | 8.7 | 0.00 | 0.00 | 0.00 | 64 | 1010.4 |
| 20260509172904 | 70 | 331 | 2.6 | 7.0 | 0.00 | 0.00 | 0.00 | 63 | 1010.5 |
| 20260509172404 | 71 | 245 | 0.0 | 1.7 | 0.00 | 0.00 | 0.00 | 62 | 1010.5 |
| 20260509171905 | 71 | 332 | 0.0 | 1.7 | 0.00 | 0.00 | 0.00 | 64 | 1010.5 |
| 20260509171404 | 70 | 320 | 0.0 | 0.9 | 0.00 | 0.00 | 0.00 | 65 | 1010.6 |
| 20260509170904 | 70 | 154 | 0.0 | 0.9 | 0.00 | 0.00 | 0.00 | 67 | 1010.6 |
| 20260509170404 | 69 | 346 | 0.0 | 4.3 | 0.00 | 0.00 | 0.00 | 64 | 1010.6 |
| 20260509165904 | 69 | 284 | 4.3 | 7.8 | 0.00 | 0.00 | 0.00 | 64 | 1010.7 |
| 20260509164905 | 69 | 234 | 0.0 | 0.9 | 0.00 | 0.00 | 0.00 | 65 | 1010.7 |
| 20260509164405 | 69 | 358 | 0.0 | 1.7 | 0.00 | 0.00 | 0.00 | 65 | 1010.7 |
| 20260509163904 | 69 | 338 | 0.0 | 2.6 | 0.00 | 0.00 | 0.00 | 64 | 1010.8 |
| 20260509162904 | 68 | 246 | 0.0 | 0.0 | 0.00 | 0.00 | 0.00 | 65 | 1010.6 |
| 20260509162405 | 68 | 308 | 0.0 | 0.0 | 0.00 | 0.00 | 0.00 | 65 | 1010.7 |
| 20260509161904 | 69 | 338 | 0.0 | 0.0 | 0.00 | 0.00 | 0.00 | 65 | 1010.7 |
| 20260509160904 | 68 | 159 | 0.0 | 0.0 | 0.00 | 0.00 | 0.00 | 67 | 1010.7 |
| 20260509160404 | 67 | 240 | 0.0 | 0.0 | 0.00 | 0.00 | 0.00 | 66 | 1010.7 |
| 20260509155904 | 67 | 240 | 0.0 | 0.0 | 0.00 | 0.00 | 0.00 | 66 | 1010.7 |
| 20260509154904 | 66 | 220 | 0.0 | 0.0 | 0.00 | 0.00 | 0.00 | 69 | 1010.6 |
| 20260509154404 | 66 | 231 | 0.0 | 0.0 | 0.00 | 0.00 | 0.00 | 68 | 1010.5 |
| 20260509153904 | 66 | 288 | 0.0 | 0.0 | 0.00 | 0.00 | 0.00 | 68 | 1010.6 |
| 20260509153404 | 66 | 220 | 0.0 | 0.0 | 0.00 | 0.00 | 0.00 | 69 | 1010.5 |
| 20260509152404 | 65 | 329 | 0.0 | 0.0 | 0.00 | 0.00 | 0.00 | 71 | 1010.3 |
| 20260509151904 | 64 | 302 | 0.0 | 0.0 | 0.00 | 0.00 | 0.00 | 70 | 1010.2 |
| 20260509150905 | 64 | 267 | 0.0 | 0.0 | 0.00 | 0.00 | 0.00 | 70 | 1010.2 |
| 20260509150404 | 64 | 337 | 0.0 | 0.0 | 0.00 | 0.00 | 0.00 | 71 | 1010.1 |
| 20260509145904 | 64 | 259 | 0.0 | 0.0 | 0.00 | 0.00 | 0.00 | 72 | 1010.1 |
| 20260509145404 | 64 | 251 | 0.0 | 0.0 | 0.00 | 0.00 | 0.00 | 73 | 1010.1 |
| 20260509144904 | 64 | 249 | 0.0 | 0.0 | 0.00 | 0.00 | 0.00 | 73 | 1010.0 |
| 20260509144404 | 64 | 225 | 0.0 | 0.0 | 0.00 | 0.00 | 0.00 | 73 | 1009.9 |
| 20260509143404 | 63 | 296 | 0.0 | 0.0 | 0.00 | 0.00 | 0.00 | 73 | 1010.0 |
| 20260509142904 | 64 | 248 | 0.0 | 0.0 | 0.00 | 0.00 | 0.00 | 75 | 1010.1 |
| 20260509142404 | 64 | 250 | 0.0 | 0.0 | 0.00 | 0.00 | 0.00 | 76 | 1010.0 |
| 20260509141904 | 63 | 272 | 0.0 | 0.0 | 0.00 | 0.00 | 0.00 | 79 | 1009.9 |
| 20260509141404 | 63 | 189 | 0.0 | 0.0 | 0.00 | 0.00 | 0.00 | 81 | 1009.8 |
| 20260509140904 | 62 | 233 | 0.0 | 0.0 | 0.00 | 0.00 | 0.00 | 82 | 1009.8 |
| 20260509135905 | 60 | 68 | 0.0 | 0.0 | 0.00 | 0.00 | 0.00 | 83 | 1009.7 |
| 20260509132905 | 59 | 186 | 0.0 | 0.0 | 0.00 | 0.00 | 0.00 | 83 | 1009.6 |
| 20260509132404 | 59 | 229 | 0.0 | 0.0 | 0.00 | 0.00 | 0.00 | 83 | 1009.7 |
| 20260509131904 | 58 | 260 | 0.0 | 0.0 | 0.00 | 0.00 | 0.00 | 83 | 1009.7 |
| 20260508225405 | 75 | 196 | 0.0 | 0.9 | 0.00 | 0.00 | 0.00 | 40 | 1009.8 |
| 20260508224904 | 75 | 245 | 0.0 | 0.9 | 0.00 | 0.00 | 0.00 | 40 | 1009.9 |
| 20260508223404 | 75 | 189 | 0.0 | 0.9 | 0.00 | 0.00 | 0.00 | 40 | 1009.7 |
| 20260508222405 | 75 | 194 | 0.0 | 0.9 | 0.00 | 0.00 | 0.00 | 40 | 1009.8 |
| 20260508221905 | 75 | 220 | 0.9 | 6.1 | 0.00 | 0.00 | 0.00 | 39 | 1009.7 |
| 20260508220904 | 76 | 229 | 0.0 | 0.9 | 0.00 | 0.00 | 0.00 | 40 | 1009.7 |
| 20260508215905 | 76 | 194 | 2.6 | 12.2 | 0.00 | 0.00 | 0.00 | 39 | 1009.6 |
| 20260508215404 | 77 | 167 | 4.3 | 11.3 | 0.00 | 0.00 | 0.00 | 40 | 1009.5 |
| 20260508214405 | 77 | 156 | 0.0 | 11.3 | 0.00 | 0.00 | 0.00 | 38 | 1009.5 |
| 20260508213905 | 78 | 228 | 0.0 | 1.7 | 0.00 | 0.00 | 0.00 | 38 | 1009.6 |
| 20260508213405 | 78 | 301 | 0.9 | 10.4 | 0.00 | 0.00 | 0.00 | 40 | 1009.7 |
| 20260508212904 | 77 | 196 | 0.0 | 1.7 | 0.00 | 0.00 | 0.00 | 39 | 1009.6 |
| 20260508212405 | 77 | 251 | 0.0 | 1.7 | 0.00 | 0.00 | 0.00 | 39 | 1009.6 |
| 20260508211405 | 77 | 171 | 2.6 | 13.0 | 0.00 | 0.00 | 0.00 | 39 | 1009.8 |
| 20260508210904 | 77 | 165 | 4.3 | 8.7 | 0.00 | 0.00 | 0.00 | 38 | 1009.8 |
| 20260508205905 | 77 | 201 | 2.6 | 10.4 | 0.00 | 0.00 | 0.00 | 39 | 1009.9 |
| 20260508205405 | 77 | 183 | 2.6 | 11.3 | 0.00 | 0.00 | 0.00 | 39 | 1010.0 |
| 20260508204904 | 77 | 151 | 3.5 | 10.4 | 0.00 | 0.00 | 0.00 | 39 | 1010.1 |
| 20260508204404 | 77 | 238 | 1.7 | 15.6 | 0.00 | 0.00 | 0.00 | 39 | 1010.1 |
| 20260508203905 | 77 | 336 | 0.9 | 10.4 | 0.00 | 0.00 | 0.00 | 40 | 1010.1 |
| 20260508203405 | 77 | 152 | 2.6 | 11.3 | 0.00 | 0.00 | 0.00 | 40 | 1010.3 |
| 20260508202904 | 77 | 296 | 2.6 | 11.3 | 0.00 | 0.00 | 0.00 | 40 | 1010.3 |
| 20260508201905 | 76 | 223 | 0.9 | 15.6 | 0.00 | 0.00 | 0.00 | 42 | 1010.5 |
| 20260508201404 | 76 | 165 | 4.3 | 13.9 | 0.00 | 0.00 | 0.00 | 41 | 1010.5 |
| 20260508200904 | 76 | 181 | 0.0 | 1.7 | 0.00 | 0.00 | 0.00 | 40 | 1010.7 |
| 20260508200404 | 76 | 209 | 0.9 | 10.4 | 0.00 | 0.00 | 0.00 | 42 | 1010.8 |
| 20260508195905 | 76 | 210 | 6.1 | 11.3 | 0.00 | 0.00 | 0.00 | 41 | 1010.9 |
| 20260508195404 | 76 | 324 | 3.5 | 11.3 | 0.00 | 0.00 | 0.00 | 42 | 1011.0 |
| 20260508194904 | 76 | 136 | 5.2 | 10.4 | 0.00 | 0.00 | 0.00 | 42 | 1011.0 |
| 20260508194404 | 76 | 197 | 4.3 | 10.4 | 0.00 | 0.00 | 0.00 | 41 | 1011.1 |
| 20260508193404 | 76 | 175 | 3.5 | 10.4 | 0.00 | 0.00 | 0.00 | 41 | 1011.2 |
| 20260508192904 | 76 | 196 | 0.0 | 4.3 | 0.00 | 0.00 | 0.00 | 42 | 1011.3 |
| 20260508191905 | 75 | 188 | 0.0 | 0.9 | 0.00 | 0.00 | 0.00 | 46 | 1011.4 |
| 20260508191404 | 75 | 150 | 0.0 | 12.2 | 0.00 | 0.00 | 0.00 | 44 | 1011.6 |
| 20260508190904 | 75 | 328 | 6.1 | 10.4 | 0.00 | 0.00 | 0.00 | 42 | 1011.6 |
| 20260508190405 | 75 | 198 | 0.9 | 7.0 | 0.00 | 0.00 | 0.00 | 43 | 1011.7 |